GFSCGP_850_spd_000.txt.gz
Wind_Speed
6 4 9 22 14 13 3 6 8 7 10 6 10 17 19 32 25 24 35 41 46 54 58 57 50 40 39 42 45 46 45 42 41 42 42 42 43 42 41 38 36 35 33 31
2 10 18 11 5 10 12 18 19 15 15 6 16 23 18 12 23 35 33 41 47 51 53 55 48 37 32 34 40 46 47 44 42 43 43 42 42 42 41 38 38 36 34 32
20 11 14 10 7 6 15 15 18 19 6 5 9 19 10 13 23 36 39 47 50 56 53 53 47 37 32 34 37 43 46 44 42 42 43 43 41 40 41 42 42 40 37 34
10 12 11 10 8 15 24 13 14 8 4 12 4 23 6 8 13 11 25 38 42 50 49 47 40 33 31 31 34 39 44 41 40 41 42 46 44 45 46 46 44 41 39 37
9 5 7 10 22 11 21 5 6 2 4 5 3 6 4 8 7 12 15 32 41 44 44 42 34 25 25 29 33 36 39 38 39 40 41 43 44 42 42 44 43 41 40 39
10 1 5 9 4 9 2 4 5 4 1 11 10 9 6 6 7 6 11 32 32 31 36 35 19 18 24 29 31 34 37 37 38 38 41 42 41 42 44 44 43 43 43 42
3 6 3 6 4 2 4 5 3 3 1 11 9 6 19 6 11 11 14 30 35 40 36 33 19 22 26 28 31 35 36 37 37 39 39 39 40 42 42 43 42 44 45 46
2 17 9 6 10 9 11 12 7 7 9 19 4 10 12 11 15 26 28 34 38 40 36 28 18 22 24 29 32 35 35 37 40 40 40 40 39 41 41 42 43 44 44 43
5 16 3 4 3 8 2 5 13 2 2 1 10 14 10 4 9 6 15 28 32 30 32 22 22 23 24 28 32 33 34 36 40 43 43 42 41 43 42 41 43 44 42 42
3 7 4 1 2 3 7 3 2 2 5 8 10 9 15 9 6 7 13 19 36 24 20 20 19 18 22 24 27 29 33 37 41 43 44 44 43 44 43 41 42 44 44 43
3 5 10 2 7 8 2 5 5 3 4 12 16 15 6 8 1 6 10 24 31 22 7 8 10 14 17 20 25 28 34 41 42 41 45 48 48 49 48 45 43 44 44 44
6 5 6 17 11 5 6 15 16 9 10 5 4 10 29 28 20 20 22 28 28 20 13 6 7 9 15 22 27 30 34 40 39 40 45 48 52 53 53 51 48 47 47 43
4 4 11 6 11 14 8 10 9 7 3 19 16 14 24 24 22 29 22 32 32 35 21 21 26 30 34 37 40 38 40 39 38 44 47 49 51 54 56 56 54 51 49 44
15 14 18 19 17 3 6 9 9 14 14 17 18 24 24 26 28 29 25 30 32 37 42 39 41 43 40 42 48 44 38 36 41 45 47 48 50 51 54 55 56 54 51 46
9 22 18 27 26 24 28 29 30 28 30 29 31 29 21 24 28 24 43 43 36 30 33 40 45 41 40 41 43 37 39 42 42 45 49 49 47 49 53 53 51 52 50 46
6 12 23 30 29 26 27 33 34 34 33 35 29 30 28 30 42 37 44 44 42 28 29 32 37 45 40 44 51 54 51 49 50 51 52 51 51 50 52 49 49 49 47 44
9 9 14 18 8 22 18 24 35 35 29 26 27 26 18 17 21 25 27 29 30 31 33 36 40 38 38 44 46 49 50 49 46 50 52 52 51 51 49 48 47 47 45 44
17 18 14 20 20 27 15 7 15 26 26 22 11 16 17 23 36 16 29 37 40 41 43 40 43 47 46 38 39 41 45 44 44 45 47 48 49 48 46 47 46 44 44 45
18 17 11 13 20 21 20 7 8 8 4 13 12 13 17 30 32 9 36 41 37 37 37 37 43 44 43 42 36 29 31 33 34 35 37 40 43 44 45 45 45 44 45 45
15 11 9 13 10 12 6 12 24 14 8 11 13 12 16 23 14 16 42 38 35 37 35 40 42 47 45 42 44 39 24 20 24 29 34 38 41 42 41 42 42 41 42 44
4 5 8 12 13 7 12 8 16 5 8 11 13 15 14 10 11 33 37 32 34 39 43 42 44 42 41 43 40 39 36 27 23 24 28 31 34 37 37 37 36 39 42 44
5 4 4 4 4 13 23 9 5 11 15 14 22 22 22 25 24 25 27 34 40 41 40 36 43 44 43 33 38 40 37 33 27 24 25 26 29 31 33 35 36 37 41 44
4 6 3 4 4 23 30 13 24 7 8 13 15 18 24 24 25 27 31 36 39 40 42 40 37 42 44 38 34 36 39 36 32 28 26 23 25 29 29 31 36 38 40 44
4 11 4 2 7 11 28 31 23 10 17 22 22 25 21 21 31 35 34 39 43 42 42 46 45 44 46 41 42 41 40 30 34 35 30 27 26 28 28 30 34 37 42 46
8 1 8 10 15 23 25 21 17 23 26 21 25 28 28 24 29 27 32 37 39 46 50 47 48 50 49 42 41 41 42 37 36 37 36 34 36 37 36 33 33 38 42 46
15 15 11 14 21 19 24 27 24 25 19 22 27 32 34 31 35 37 41 44 41 45 45 47 51 50 51 48 46 43 41 39 41 37 40 38 36 39 40 39 40 43 46 47

GFSCGP_850_spd_003.txt.gz
Wind_Speed
5 4 9 22 16 14 4 7 9 8 10 2 11 16 16 27 29 32 35 42 47 52 58 54 51 46 40 41 38 40 43 43 44 44 43 45 46 44 43 42 41 39 37 36
1 11 20 7 4 7 8 13 17 18 17 5 17 24 15 12 23 36 42 39 44 48 50 51 46 39 38 36 34 35 41 45 46 45 43 45 46 45 43 42 42 41 40 38
18 10 13 9 8 5 11 11 18 17 6 6 10 21 14 11 17 34 44 41 44 47 50 52 46 39 35 35 33 32 35 40 44 44 44 45 45 44 44 45 44 45 42 40
9 8 12 6 7 14 22 12 14 10 2 10 2 19 4 10 18 16 30 36 39 43 38 42 44 38 31 27 27 31 34 38 40 43 45 46 46 47 47 44 45 45 44 41
9 2 4 7 16 9 12 6 6 3 4 5 4 4 2 5 9 12 11 25 27 30 34 35 37 33 23 21 23 27 31 34 37 40 42 43 45 45 41 43 44 45 44 42
10 2 6 8 4 10 3 3 3 4 3 7 10 7 24 5 7 4 6 23 27 28 34 41 35 34 24 23 23 25 30 31 33 37 41 43 43 43 43 45 45 45 44 44
3 5 3 7 5 2 4 4 4 3 2 10 7 6 26 8 8 8 13 20 22 30 32 40 39 36 25 27 25 26 27 29 31 35 38 40 40 40 42 42 41 41 44 45
4 16 9 6 9 8 7 9 6 7 8 16 7 9 18 8 11 14 12 10 20 34 42 34 21 23 22 22 26 25 27 27 29 32 36 38 39 41 43 43 42 39 39 42
5 10 2 5 4 9 5 6 8 3 0 3 12 17 15 8 6 3 7 12 19 30 39 30 18 17 19 19 21 22 24 23 31 31 34 38 42 43 42 42 42 41 39 39
2 8 3 2 1 4 6 2 1 1 4 11 8 16 16 16 17 6 8 12 24 26 32 26 18 12 10 10 10 16 21 22 28 32 35 39 41 41 41 43 43 41 40 41
4 3 9 1 6 16 1 4 5 1 5 16 19 13 24 28 7 7 12 29 31 22 28 34 13 10 9 9 12 13 18 22 27 32 37 42 43 44 45 46 45 43 42 42
7 5 7 19 6 5 5 8 5 5 10 9 15 16 13 24 10 9 22 36 37 35 35 34 26 14 12 19 27 32 28 31 34 38 40 44 46 50 50 49 48 48 46 45
2 3 10 6 8 3 6 11 13 17 15 21 19 19 11 19 20 26 20 26 31 31 23 25 27 29 32 31 35 36 41 43 40 44 49 49 50 52 52 53 53 53 51 49
10 8 16 13 11 16 17 19 20 13 12 20 19 22 17 22 24 27 23 28 30 27 28 29 27 27 29 30 31 33 37 47 53 49 50 50 48 49 54 55 55 55 56 55
2 14 15 20 16 16 20 24 29 30 26 22 22 24 22 23 15 21 25 30 31 33 33 35 34 33 34 34 33 33 36 40 44 46 48 51 48 50 54 54 53 54 53 55
1 8 13 22 22 17 18 13 15 13 15 21 24 29 20 24 31 32 24 29 32 30 29 29 35 39 40 40 40 40 40 41 45 48 49 49 53 56 54 55 52 52 53 54
6 6 5 20 17 14 15 18 17 21 13 8 8 7 13 18 19 25 20 30 27 26 27 30 32 35 40 43 44 46 46 44 40 42 46 41 43 54 55 52 52 51 53 50
14 13 8 16 17 22 11 2 5 5 8 11 9 8 12 16 24 25 15 31 30 28 25 31 26 38 41 40 43 45 45 44 45 35 33 36 40 44 49 47 50 50 49 46
15 13 6 3 6 12 15 7 6 5 4 9 4 4 9 16 23 11 24 27 28 24 28 30 35 36 42 42 41 43 47 43 43 44 36 34 31 34 42 44 44 44 45 45
4 4 3 3 4 5 2 7 9 7 6 4 4 3 7 15 12 14 29 27 26 32 33 36 35 37 42 40 41 41 40 44 38 39 45 41 33 30 32 34 37 40 43 43
3 3 3 4 4 7 3 8 5 4 7 19 3 4 7 5 10 32 35 32 31 35 38 37 39 41 41 43 42 44 42 42 44 38 37 42 41 33 28 27 30 35 39 40
4 3 3 2 1 9 6 10 1 6 20 19 8 16 16 21 26 28 30 32 36 36 37 39 40 44 45 46 44 44 44 43 43 42 41 34 38 38 31 26 25 30 35 38
3 7 5 8 6 9 31 27 32 20 20 18 16 21 19 22 27 27 32 35 37 38 39 42 45 51 51 51 49 52 48 45 41 41 40 36 30 33 35 31 27 29 34 37
7 18 4 2 12 17 22 26 32 33 24 21 23 24 20 21 25 29 32 38 40 41 44 44 47 51 56 55 57 54 53 49 44 45 46 39 34 33 33 34 32 29 32 34
9 4 7 10 16 22 31 28 28 23 22 26 27 26 28 23 31 29 34 39 41 43 46 47 52 56 60 59 59 59 56 52 51 47 45 45 38 33 34 39 38 38 37 35
12 17 11 14 27 20 20 31 25 20 22 25 25 30 31 29 34 37 43 44 42 45 49 48 51 56 64 62 61 60 56 53 50 46 44 41 41 37 35 34 39 40 41 40

GFSCGP_850_spd_006.txt.gz
Wind_Speed
4 4 9 20 13 9 2 6 11 8 9 4 20 22 18 25 26 36 38 36 45 47 50 45 40 38 36 32 30 31 34 36 40 42 44 47 47 47 47 46 44 43 42 41
4 7 17 2 2 6 5 11 18 14 14 5 13 21 17 20 25 32 39 41 36 43 45 45 41 33 30 27 25 23 27 34 39 43 45 46 44 46 47 46 46 46 45 43
11 10 4 6 3 8 4 7 17 14 7 5 10 14 8 9 13 27 37 44 36 39 40 33 36 35 27 23 22 22 24 29 36 41 44 45 45 46 48 49 49 48 46 45
6 4 6 3 7 9 15 11 13 11 6 7 5 15 7 8 10 8 27 25 29 23 26 30 34 32 33 25 17 20 25 32 35 37 40 45 48 49 49 48 47 48 48 48
7 3 2 4 9 8 11 4 7 3 4 5 1 3 2 4 6 11 9 11 15 21 20 25 28 33 29 25 21 21 23 28 33 37 38 41 44 47 46 45 46 47 48 48
7 2 6 8 7 9 2 2 4 4 2 6 9 8 20 3 4 3 9 30 22 19 27 28 30 33 27 18 19 22 22 24 29 33 36 38 42 45 45 44 42 46 48 48
2 5 4 5 3 1 3 4 3 3 1 9 3 3 15 9 15 8 10 19 8 18 29 37 38 36 30 19 16 19 21 22 23 26 30 34 37 39 41 40 41 42 45 48
5 16 6 5 9 9 8 9 6 7 5 12 4 7 18 5 9 27 20 16 5 20 27 36 38 36 29 21 14 13 14 15 19 21 26 29 33 38 39 40 40 41 41 42
4 11 3 6 4 4 4 5 3 2 2 2 12 14 14 14 6 4 2 4 13 22 23 30 31 34 24 20 14 11 9 10 13 17 23 25 27 34 39 38 38 39 39 40
4 11 5 3 4 5 7 3 2 1 3 6 7 13 12 22 24 7 8 13 32 34 30 27 26 21 21 23 24 20 16 17 18 18 20 24 28 31 34 37 40 39 39 41
2 3 7 0 7 12 2 4 3 2 5 10 16 12 10 21 22 8 10 27 28 30 30 29 25 20 19 20 20 22 21 23 28 29 29 29 31 35 37 39 40 41 42 42
9 5 12 25 6 4 5 11 9 11 9 10 13 12 14 16 22 25 25 27 30 29 32 30 26 27 27 25 26 29 27 22 20 23 27 29 34 37 40 44 45 45 46 45
4 4 2 4 5 4 1 2 4 10 6 13 12 7 8 12 18 27 27 30 30 32 32 32 33 33 33 33 34 33 32 35 32 27 24 24 25 30 37 42 47 50 50 49
5 5 10 14 13 7 11 10 12 13 9 14 14 21 17 13 13 19 19 25 31 33 33 34 38 35 35 38 38 39 38 36 39 38 37 33 29 29 31 32 41 48 50 53
2 12 15 18 11 7 8 13 18 18 17 12 19 20 8 10 13 18 14 20 22 29 32 33 37 37 39 40 43 42 41 40 40 41 39 42 36 32 30 34 36 42 48 50
2 3 5 13 19 14 19 18 19 21 20 16 18 11 4 5 9 12 13 13 23 25 23 24 32 33 40 40 41 44 46 42 41 41 43 39 39 35 32 30 33 37 43 47
2 3 6 18 12 8 12 21 20 18 19 3 10 2 1 4 8 15 17 10 19 19 23 23 31 32 35 36 38 39 41 45 40 39 41 42 40 37 37 32 30 34 39 42
9 11 5 12 9 19 7 5 8 9 6 6 5 3 6 8 11 17 3 17 20 21 20 27 29 32 34 35 36 39 40 41 43 41 42 43 42 39 39 38 32 31 35 40
16 11 4 4 7 8 8 3 2 1 5 5 4 6 10 14 12 2 13 21 28 30 25 30 31 31 33 35 35 39 41 42 43 45 44 44 45 44 38 37 36 30 30 37
2 12 8 2 4 6 2 2 3 3 4 8 8 7 8 7 5 9 26 29 30 29 31 34 34 33 34 34 37 41 42 44 46 47 46 48 44 41 41 36 34 32 28 31
3 3 6 6 4 7 4 6 2 5 5 11 6 14 17 5 9 26 35 33 30 31 35 36 37 39 40 39 41 43 46 49 50 51 52 48 48 43 39 36 34 32 29 24
5 4 4 2 3 7 5 3 4 6 20 21 19 25 22 23 26 31 32 35 35 35 38 37 39 41 42 44 46 48 49 50 52 55 55 56 50 49 44 37 34 33 28 27
2 6 4 7 6 5 11 16 30 22 22 26 22 23 25 25 31 31 33 37 38 40 42 41 44 47 49 50 51 53 57 55 55 55 60 58 56 52 50 41 36 35 33 29
5 7 10 14 14 17 30 36 28 35 34 36 28 24 22 26 29 31 34 38 43 46 46 46 47 52 56 56 58 60 60 59 58 60 59 62 58 54 48 48 39 36 36 37
9 5 5 12 18 21 28 35 33 28 27 25 23 24 25 23 31 30 37 44 45 47 51 49 48 52 60 61 63 63 63 59 61 62 62 59 59 52 49 46 43 37 37 39
15 17 9 12 26 22 25 34 25 19 20 20 24 28 28 28 32 34 42 43 44 48 53 51 53 52 58 58 61 58 54 55 58 59 58 55 52 51 47 42 45 39 37 38

GFSCGP_850_spd_009.txt.gz
Wind_Speed
3 4 8 14 15 3 3 5 6 13 12 4 24 19 14 25 26 35 41 39 31 38 34 32 32 24 17 16 18 20 23 25 32 39 44 49 51 51 52 51 49 48 46 45
4 7 17 3 5 8 7 8 15 8 12 3 13 21 21 19 27 30 35 35 27 31 29 30 24 21 19 17 17 20 21 25 29 36 42 48 50 52 52 52 52 50 49 48
8 6 3 6 4 7 4 6 10 10 7 6 8 8 4 7 12 22 28 25 27 26 21 22 24 23 23 21 16 18 21 24 29 34 39 45 49 48 51 55 54 53 51 49
6 3 6 4 6 7 7 10 10 6 5 4 6 13 5 7 9 8 10 11 10 11 22 31 35 33 29 26 21 18 20 23 28 34 40 44 46 48 50 52 50 51 51 51
7 6 4 4 8 8 10 3 3 2 3 4 1 3 5 3 7 7 6 7 11 16 26 36 39 39 35 28 23 19 22 21 25 31 36 39 44 45 45 45 47 50 51 52
6 2 5 7 4 6 4 3 5 4 2 4 8 7 2 4 5 1 3 28 29 23 28 31 29 33 36 33 25 18 16 19 19 25 32 36 38 41 43 43 42 43 49 51
1 5 2 3 1 1 3 4 4 3 1 8 1 2 7 5 10 5 8 22 15 28 30 31 29 31 32 34 33 27 22 16 13 17 23 29 34 37 39 40 39 40 42 47
3 16 7 5 7 7 7 9 7 7 6 9 2 7 13 8 6 14 15 17 27 30 28 29 31 31 31 30 28 28 26 24 21 17 18 22 28 35 37 36 35 36 37 38
5 8 1 5 5 6 3 6 4 1 2 1 7 12 14 8 7 17 25 33 33 33 34 32 32 33 32 31 31 28 24 21 20 18 18 19 22 27 31 33 32 34 35 36
2 8 4 3 1 5 7 1 1 2 3 13 6 14 14 13 12 13 16 21 23 29 32 31 30 31 33 32 31 28 27 26 24 22 18 16 20 25 28 29 27 29 32 35
3 7 11 2 7 8 2 4 4 3 5 11 10 7 8 8 9 9 9 13 18 23 27 28 28 27 28 32 33 32 29 29 25 24 24 24 20 20 24 29 27 28 32 35
5 4 6 11 7 1 2 7 7 6 7 5 8 9 4 12 11 11 10 13 19 21 24 27 29 30 30 32 34 35 36 35 32 28 26 25 25 24 21 24 26 26 31 34
1 3 6 5 3 3 2 1 5 4 4 13 11 4 5 10 11 14 11 14 16 19 26 27 30 33 34 34 36 35 35 35 35 34 32 28 27 28 25 25 24 24 28 31
2 4 13 15 8 3 8 15 6 6 7 11 11 12 10 7 11 12 12 12 15 22 27 22 25 28 29 31 33 36 35 34 34 32 33 33 31 29 29 29 26 27 27 29
3 8 8 12 15 6 8 10 14 15 16 10 16 19 21 2 3 7 13 13 17 20 23 22 21 27 25 28 30 31 34 36 34 34 32 33 34 33 34 31 31 30 31 31
2 8 3 7 8 8 14 16 19 20 18 15 18 22 5 3 3 6 12 8 14 24 27 28 25 26 28 29 29 32 34 36 38 38 35 35 33 35 34 36 35 34 35 34
3 2 3 19 10 7 10 17 15 14 17 13 16 3 2 2 3 8 9 4 14 24 26 28 25 27 29 29 29 30 31 33 35 37 40 41 41 37 36 35 36 37 35 36
7 6 4 11 4 20 6 3 1 6 2 4 4 2 5 8 8 11 10 9 20 24 28 29 28 30 31 31 30 33 32 31 34 38 41 42 45 45 41 38 37 35 36 34
16 11 5 8 11 12 13 5 4 4 4 6 6 3 6 9 7 17 12 14 21 26 29 30 30 33 37 36 35 34 34 34 37 39 41 43 45 47 47 45 43 42 39 36
6 13 10 2 4 6 2 1 1 4 4 7 8 5 8 7 2 10 18 16 23 28 30 33 34 36 40 42 41 41 41 42 44 45 46 47 47 49 49 49 49 46 43 40
3 2 11 11 8 6 6 4 5 5 5 12 12 16 17 6 18 27 24 26 32 34 34 34 34 40 44 44 44 46 47 48 48 48 48 50 53 52 53 54 53 53 50 45
4 3 3 3 1 7 5 2 5 5 15 19 18 19 20 24 25 28 30 32 36 37 38 38 42 46 48 47 48 51 54 54 52 53 56 57 55 57 58 57 57 54 52 47
3 5 4 9 6 3 6 13 33 32 27 32 25 30 24 23 26 27 29 34 36 38 40 44 45 48 49 51 50 52 58 55 57 59 62 64 64 62 59 60 59 56 52 51
5 9 8 11 12 15 30 35 33 33 33 32 29 25 22 19 23 26 32 36 37 42 42 41 44 49 55 57 53 49 55 53 55 61 65 64 62 63 62 59 58 55 52 48
11 4 6 12 14 22 30 34 38 33 29 25 25 20 18 21 26 26 33 37 40 43 45 43 43 43 52 55 58 54 52 51 55 56 55 53 53 53 52 52 51 48 47 41
18 17 10 14 23 21 29 34 24 18 17 19 21 23 22 22 27 30 35 37 41 45 48 51 51 47 51 53 54 51 47 45 47 49 47 44 43 44 44 43 49 45 41 37

GFSCGP_850_spd_015.txt.gz
Wind_Speed
10 8 10 16 16 19 20 20 21 20 19 20 18 17 19 24 30 25 20 14 10 9 13 17 18 16 13 10 8 9 10 12 16 19 24 28 34 36 36 38 40 41 40 42
5 12 16 16 8 13 16 19 20 19 13 2 14 19 21 18 23 18 12 9 12 11 15 17 19 19 17 14 12 12 9 7 10 12 14 15 16 23 24 29 35 38 41 44
17 14 4 10 14 16 17 17 19 19 17 13 13 15 14 10 20 13 3 17 16 16 16 19 22 25 25 25 23 19 14 8 5 6 10 14 15 20 18 21 25 32 34 38
12 10 8 11 15 14 16 13 9 11 7 11 7 11 12 13 8 14 16 15 15 16 16 18 22 27 28 27 25 24 21 16 10 5 4 7 10 12 13 16 20 25 29 33
1 5 3 8 8 5 8 3 7 8 11 13 11 13 9 16 11 7 13 11 14 14 15 16 18 20 24 27 29 28 26 24 20 14 7 5 8 10 10 13 16 18 22 24
17 2 3 9 1 7 3 7 12 11 8 10 7 7 4 4 2 7 10 12 11 11 13 16 16 18 21 23 25 25 27 30 30 25 20 14 8 9 11 12 15 15 17 20
5 9 4 3 7 5 5 8 8 9 10 18 12 7 12 13 3 7 10 9 9 10 12 14 14 16 17 20 21 25 28 28 28 28 27 24 19 13 10 12 12 13 15 18
13 18 5 8 4 8 12 10 8 13 16 16 15 11 11 5 12 12 12 11 9 10 10 12 14 16 16 19 23 26 28 27 26 24 24 23 24 21 17 15 13 13 13 17
10 12 7 3 2 2 3 6 6 6 8 9 14 21 24 13 12 11 11 10 8 8 10 12 12 15 18 22 24 24 24 24 23 22 21 22 22 22 22 19 16 16 15 17
3 12 4 3 1 8 8 6 5 5 5 14 17 23 16 16 9 8 7 7 8 10 12 13 14 16 17 19 21 21 20 19 19 20 20 20 21 22 22 22 22 22 18 16
3 4 17 9 9 14 9 8 10 12 9 12 17 13 8 9 7 7 6 5 7 9 11 12 12 12 13 15 17 19 20 22 22 21 21 21 20 20 20 21 22 21 22 23
9 5 10 22 19 17 13 18 18 7 5 10 12 14 14 6 3 4 4 1 2 4 6 6 6 9 11 13 14 16 19 23 25 25 25 24 22 21 22 23 24 25 24 22
4 3 5 9 13 5 5 9 10 13 5 18 15 12 7 5 2 3 6 7 4 1 3 4 6 8 9 10 13 16 20 22 27 29 27 27 28 27 26 25 24 25 26 26
1 7 13 13 17 18 14 13 7 6 5 9 11 21 24 14 11 7 11 7 8 5 2 5 8 9 11 12 14 16 17 21 25 28 29 31 32 32 31 30 30 29 28 28
4 11 15 18 21 22 20 20 25 25 25 23 26 23 22 21 17 15 10 4 6 6 5 6 8 9 11 13 14 15 19 20 22 25 27 28 32 35 37 39 39 37 34 33
9 11 12 17 20 20 22 25 26 23 24 25 25 27 22 9 4 2 3 5 9 10 7 8 9 11 12 13 15 15 17 19 24 27 29 29 32 34 38 42 43 42 42 41
8 6 7 19 15 17 16 22 23 24 24 24 23 13 8 5 3 5 8 8 10 12 12 11 12 14 16 18 18 19 19 22 32 36 36 36 35 37 38 40 43 46 48 49
12 12 9 14 12 19 14 13 14 16 14 11 7 2 2 2 7 10 11 13 14 15 17 17 16 18 19 20 21 21 24 32 39 40 39 40 42 44 44 44 44 45 46 49
18 15 8 9 13 18 25 20 18 15 16 8 6 5 2 10 14 18 12 9 15 16 17 20 19 18 22 23 22 27 36 39 36 36 39 42 44 48 52 55 56 55 55 54
6 14 12 10 15 17 16 1 1 3 12 7 8 3 9 13 10 12 17 17 16 16 19 19 22 27 27 28 28 37 43 44 41 39 41 45 48 50 49 49 53 57 58 62
3 5 14 13 15 12 5 5 4 7 8 13 5 12 16 11 16 22 21 19 17 19 19 23 25 27 30 29 37 42 46 50 48 50 49 49 47 43 46 49 47 45 48 51
9 7 6 4 6 12 4 5 6 3 3 8 17 22 21 21 20 20 19 19 17 16 19 21 27 32 36 36 40 46 51 54 55 57 58 58 57 54 50 47 50 46 46 48
7 10 7 8 6 4 12 13 17 18 21 27 27 25 21 19 18 18 18 16 15 18 22 27 33 36 37 39 44 49 51 51 53 55 57 58 58 55 50 45 43 42 41 42
15 22 12 12 15 26 30 32 31 29 29 30 27 24 19 19 16 14 13 16 20 22 27 29 33 35 41 43 46 45 46 47 50 53 54 52 49 47 43 40 38 38 37 38
14 6 11 13 21 26 30 31 32 30 29 27 21 19 20 17 17 14 18 21 22 25 27 30 33 38 43 43 44 43 43 44 47 49 49 47 44 41 41 40 39 38 39 39
23 21 12 15 26 22 26 28 25 23 27 27 25 23 22 20 20 19 19 21 24 26 28 31 35 39 41 41 41 41 40 40 43 44 43 42 43 44 42 41 42 37 36 37

GFSCGP_850_spd_021.txt.gz
Wind_Speed
5 4 6 11 10 5 3 3 4 5 9 3 7 5 9 18 24 9 20 19 18 20 17 17 17 15 16 15 12 8 1 4 8 10 10 12 15 16 14 15 16 19 22 24
4 5 13 6 5 7 6 4 6 5 6 1 8 8 11 15 7 8 25 20 17 16 17 20 21 22 25 24 22 18 13 7 3 1 1 3 6 11 14 13 13 16 19 22
8 8 8 7 5 5 3 4 5 7 5 4 3 7 7 2 19 22 20 20 17 18 20 21 22 24 25 28 29 26 22 16 11 6 2 4 5 7 9 9 12 12 16 20
6 10 6 8 6 6 3 4 6 4 2 3 3 5 6 1 8 9 15 18 18 18 19 20 22 24 27 27 25 25 25 24 22 17 12 10 7 4 2 4 8 10 14 17
6 6 4 3 6 7 8 3 2 3 3 2 5 1 7 9 4 6 13 19 18 16 17 19 20 20 20 21 22 22 21 20 21 20 18 15 12 7 3 6 8 9 10 9
6 1 3 6 2 3 4 2 3 3 3 1 8 6 5 5 7 6 13 19 19 16 15 16 16 16 19 18 19 19 19 19 18 17 16 15 13 11 7 6 6 7 8 9
2 5 2 3 2 4 3 4 2 3 1 6 3 2 8 3 5 11 16 22 18 14 13 13 14 15 15 15 15 15 15 15 16 16 15 15 14 13 12 12 12 11 9 10
4 4 8 4 5 6 6 5 4 5 3 5 6 5 4 8 25 28 24 21 15 12 10 10 10 11 12 13 12 11 11 12 12 12 14 15 15 16 16 16 15 14 14 14
5 4 2 2 1 6 4 4 3 2 1 2 4 4 5 8 11 17 17 14 12 10 7 6 7 9 10 10 10 11 13 13 13 13 12 12 13 14 15 16 16 17 17 17
2 1 2 2 3 2 3 5 2 2 1 5 5 4 4 5 9 7 9 12 10 7 4 1 3 6 6 7 9 10 11 13 14 14 14 13 12 13 15 16 17 18 19 20
3 4 4 4 5 5 1 1 2 4 4 4 2 5 5 7 10 10 14 15 14 11 7 6 4 4 4 4 6 9 11 12 13 14 14 15 16 16 17 18 20 21 21 22
1 4 4 8 4 5 6 6 6 3 5 3 3 9 3 7 14 18 19 18 16 15 11 8 6 3 0 3 4 7 11 14 16 17 17 19 22 24 25 25 24 25 26 26
5 1 2 9 4 3 3 2 4 3 2 7 6 6 2 6 7 14 16 18 18 13 8 9 9 7 5 4 4 6 9 13 17 19 22 23 25 28 30 33 33 31 32 30
6 3 7 9 4 4 2 4 2 4 3 3 10 15 19 9 7 11 17 18 16 15 13 12 11 10 9 7 7 8 10 14 17 19 21 23 27 30 32 32 33 35 37 40
5 5 3 5 4 3 4 8 7 7 11 7 20 17 19 14 5 3 3 3 13 14 16 15 15 13 10 10 11 12 15 19 21 23 24 25 29 31 33 35 37 39 42 43
2 2 2 4 4 4 7 15 11 13 15 16 19 23 18 4 4 6 8 7 9 8 11 15 14 12 13 13 14 14 15 17 21 22 24 27 32 34 35 38 41 45 48 50
5 5 3 5 2 3 7 14 15 10 11 7 9 10 3 4 7 6 6 4 5 6 7 7 10 14 14 14 15 17 20 23 23 24 27 31 32 36 38 43 47 50 52 54
6 6 3 4 3 1 8 3 5 8 7 5 2 4 8 7 8 5 5 9 11 9 10 12 13 13 11 15 18 20 22 24 26 30 32 34 36 40 43 47 49 51 51 53
8 5 1 4 5 6 12 6 6 4 7 6 6 4 13 9 3 6 5 4 4 9 13 13 13 14 15 18 20 22 23 26 30 32 34 38 42 45 46 47 48 48 50 52
7 5 5 3 6 9 6 4 10 7 9 11 13 11 12 6 1 4 10 14 19 22 20 17 16 19 22 21 23 26 28 30 31 34 39 43 44 44 46 47 47 48 49 51
3 1 15 14 6 7 6 7 8 5 8 6 11 19 14 5 10 14 18 16 18 22 18 18 21 23 22 22 25 27 29 29 34 39 43 43 43 43 44 46 46 48 49 48
7 7 5 2 1 8 12 4 7 8 9 8 13 16 16 18 22 23 20 19 20 20 20 22 22 22 22 25 26 27 28 32 38 40 41 42 41 42 43 43 46 45 41 41
2 8 5 9 7 6 22 11 15 12 12 12 13 19 25 26 23 21 22 23 21 23 24 24 24 24 24 25 26 26 29 35 39 40 40 40 41 41 40 42 41 38 36 38
5 3 3 4 6 12 22 24 23 24 23 24 24 23 22 25 21 24 24 25 24 26 25 26 26 25 25 24 24 27 31 35 37 39 38 39 41 41 41 38 34 34 35 37
8 6 5 6 12 18 25 31 34 34 31 33 31 28 27 23 23 25 27 27 28 28 27 27 25 25 24 23 25 28 31 34 36 35 35 37 39 39 41 36 33 34 33 32
19 18 11 13 23 18 23 29 29 27 26 25 22 22 23 25 26 27 28 27 27 27 26 26 24 25 23 24 27 27 30 32 33 33 34 36 37 38 38 36 37 31 33 30

GFSCGP_850_spd_024.txt.gz
Wind_Speed
4 4 7 12 11 4 4 4 5 4 8 3 7 4 11 20 8 9 14 14 15 18 17 17 17 17 16 14 12 12 7 4 2 5 6 7 6 7 9 8 11 14 15 16
4 6 14 3 5 7 5 4 6 6 6 1 7 8 11 7 5 11 20 17 17 17 18 20 21 24 27 26 26 22 20 15 12 8 7 3 2 5 8 8 9 12 14 15
8 7 7 6 5 5 5 6 5 8 4 2 2 7 6 5 16 20 16 17 17 18 19 20 22 25 26 29 29 28 27 24 21 17 10 5 2 3 5 6 7 10 11 12
5 10 5 3 3 5 5 6 6 5 3 4 1 5 6 4 6 9 14 16 16 17 18 20 21 24 25 26 24 24 24 23 23 21 18 16 13 10 9 6 5 9 12 13
6 2 4 6 8 8 8 3 3 0 2 1 3 2 6 7 4 5 12 16 15 15 17 19 20 21 22 22 24 24 22 22 22 20 19 18 17 15 12 8 8 8 7 7
6 1 3 6 2 4 3 3 5 4 3 2 6 7 4 3 3 7 12 16 15 14 15 17 16 16 19 20 19 19 19 20 19 18 17 16 14 13 13 14 15 17 15 11
3 5 3 3 3 2 4 5 3 3 1 6 3 3 6 5 3 14 20 20 14 12 12 12 13 14 14 14 14 13 12 12 11 11 10 12 12 12 13 14 16 17 18 18
5 3 9 5 6 7 6 8 5 7 4 5 4 5 3 4 12 24 23 20 15 12 10 8 8 8 10 11 11 10 9 10 10 10 10 10 10 11 12 13 13 13 15 17
6 5 2 2 3 6 4 3 1 4 2 3 4 1 2 3 5 13 19 18 15 12 10 4 2 5 8 8 7 7 6 6 7 8 7 9 10 12 14 15 16 17 18 18
5 2 4 2 3 3 4 6 2 2 1 5 4 5 5 8 9 7 10 17 16 14 12 8 5 5 7 5 5 5 6 6 7 7 7 9 10 12 14 15 17 19 20 22
4 2 1 3 5 8 2 3 2 3 5 5 2 6 3 8 12 14 17 20 19 17 16 12 9 7 5 3 1 2 4 6 7 9 11 13 14 15 17 17 19 20 20 22
3 4 4 6 2 4 1 6 6 4 5 3 3 8 1 7 17 18 20 17 16 16 16 14 11 10 7 5 3 1 2 5 8 12 14 16 17 18 21 23 24 24 25 25
7 2 2 6 4 1 4 3 4 5 3 5 4 6 0 4 6 15 13 14 16 19 20 16 14 13 10 7 5 3 3 6 11 14 16 18 21 23 25 27 28 28 31 32
11 5 7 11 5 4 3 4 3 4 3 3 9 5 8 7 7 9 14 17 19 23 22 18 17 15 12 10 9 8 6 8 12 16 18 19 21 23 26 28 30 33 36 40
4 6 3 3 4 3 4 8 8 8 6 8 15 9 15 5 6 13 17 14 11 19 21 21 19 18 16 13 12 12 13 14 17 19 21 22 24 26 28 29 32 36 40 44
1 2 3 3 1 5 6 13 6 10 13 10 15 19 12 22 14 5 8 9 11 15 20 21 20 20 19 16 15 16 17 17 18 20 22 23 26 29 30 33 37 42 46 48
5 6 3 6 3 3 7 9 15 12 9 8 11 13 2 5 9 13 13 11 11 12 12 14 21 21 19 19 20 21 20 20 20 22 23 26 29 30 33 37 42 45 46 48
5 5 2 3 3 2 5 3 4 9 9 5 2 3 8 10 13 13 15 12 12 13 14 14 15 18 18 21 24 22 20 19 22 23 26 28 29 32 37 41 42 45 45 47
2 4 2 4 4 7 12 6 7 7 8 7 7 3 10 13 7 10 13 11 9 7 9 13 17 19 20 20 21 21 20 21 23 25 27 29 32 37 39 41 42 44 46 47
4 1 5 3 6 10 6 2 10 6 5 10 14 12 12 13 3 6 17 9 11 15 18 21 21 20 21 21 21 21 21 23 25 27 28 31 35 37 39 40 41 43 44 46
3 1 13 10 3 8 8 7 6 5 8 9 11 15 16 7 19 15 12 14 19 18 18 21 22 22 22 21 21 22 22 24 26 27 29 33 34 36 37 39 40 41 43 44
8 8 4 2 3 8 13 6 7 6 9 9 15 18 19 23 20 20 22 21 19 20 22 22 23 24 24 23 23 25 25 26 26 28 32 33 33 34 34 37 38 40 40 41
2 7 6 10 7 4 24 19 31 23 16 17 20 19 20 21 24 25 26 23 20 19 22 23 26 27 25 24 24 26 26 27 27 30 32 32 32 33 33 35 36 38 37 37
4 5 3 4 5 7 19 27 21 19 22 25 24 23 25 27 27 25 26 24 23 22 23 23 26 27 25 25 25 26 27 27 28 32 32 32 33 34 34 33 33 34 34 36
7 7 4 4 6 13 23 28 27 31 33 30 30 31 32 31 29 26 27 24 23 23 25 26 27 28 27 26 25 26 26 27 28 31 31 31 32 32 33 32 31 31 31 32
12 9 5 7 25 18 22 29 30 31 31 32 26 26 31 28 26 25 27 25 23 23 26 28 28 27 25 25 25 25 26 27 28 30 30 30 30 31 31 32 32 23 28 31

GFSCGP_850_spd_027.txt.gz
Wind_Speed
3 4 7 13 10 3 3 4 5 3 4 1 6 6 12 11 3 13 13 14 15 16 17 18 19 19 20 19 19 18 14 14 6 3 2 1 0 1 3 4 7 9 10 12
4 6 12 4 5 6 2 2 6 5 5 5 7 9 5 9 6 11 15 15 16 17 18 20 23 25 27 28 29 28 28 25 22 18 14 10 7 4 1 3 4 8 10 10
8 7 6 7 5 6 5 6 4 7 4 2 3 6 2 6 15 17 14 15 15 17 18 19 21 23 25 27 28 28 28 28 28 26 21 15 10 5 2 4 4 7 8 10
6 5 5 4 5 7 5 8 8 5 3 4 2 4 5 5 5 7 13 14 15 16 16 18 20 22 25 26 25 26 26 26 26 25 24 22 22 21 20 16 13 12 11 10
7 4 4 5 7 7 7 4 6 3 4 3 4 2 6 7 4 6 10 13 15 15 15 17 18 20 21 20 19 20 20 20 19 18 19 18 17 17 15 13 12 13 14 13
5 2 5 7 2 6 5 4 5 4 3 1 8 8 4 5 4 5 13 18 17 15 15 15 16 16 15 14 13 15 15 16 13 13 12 11 11 10 8 8 9 11 11 11
1 4 1 2 4 3 4 5 3 4 2 5 4 2 7 3 4 10 18 22 19 17 14 14 13 10 10 9 10 11 11 11 10 10 10 12 12 11 13 14 14 14 15 16
6 4 9 6 7 6 6 7 5 7 4 4 1 6 4 2 4 17 27 24 20 18 16 13 10 6 5 6 6 7 7 7 7 7 8 9 10 11 11 13 15 16 17 18
6 4 0 2 3 7 5 4 3 5 2 2 4 3 3 4 3 14 22 21 21 20 18 13 10 4 1 3 3 3 4 4 4 5 7 7 7 8 10 12 13 15 17 18
5 1 1 2 2 4 4 6 3 2 1 5 5 6 5 6 10 8 11 23 22 19 19 16 12 6 3 2 1 1 2 1 2 3 4 5 7 8 9 11 14 16 17 19
5 3 2 3 5 8 2 3 3 3 4 5 2 7 4 10 13 14 20 26 23 22 20 18 14 10 8 7 6 4 3 2 0 2 4 7 9 11 14 16 18 19 20 22
4 4 3 7 1 3 2 7 7 6 7 3 2 14 4 7 16 20 22 23 20 19 19 19 17 15 13 10 9 7 6 3 2 5 8 11 13 15 17 19 21 23 23 24
7 1 1 5 2 1 4 4 3 4 4 6 5 7 4 6 8 17 17 19 16 17 19 22 21 21 16 14 12 10 8 5 4 7 11 14 17 19 21 23 25 26 27 30
9 5 7 12 5 4 4 5 5 5 4 5 15 8 2 4 7 10 14 15 14 17 22 25 25 22 18 17 13 11 10 9 8 10 13 16 19 21 23 25 26 27 29 33
5 8 5 3 5 3 4 5 8 8 8 11 10 10 6 10 9 18 16 16 20 20 23 26 26 23 21 18 15 13 12 13 14 15 16 19 22 24 25 28 28 29 33 38
1 3 3 3 2 4 5 7 8 11 5 6 9 17 9 9 13 11 13 13 14 13 14 19 23 22 21 18 16 15 17 19 20 19 21 23 25 26 28 29 30 34 38 40
6 6 4 11 1 3 8 11 15 10 10 9 13 18 4 7 9 10 13 13 12 12 13 15 18 20 20 20 21 22 24 25 25 24 24 25 28 29 31 31 34 37 39 41
6 7 2 3 2 5 3 3 4 7 8 7 2 3 7 5 7 9 10 13 14 12 12 13 14 14 17 22 27 29 30 31 28 27 27 26 29 31 30 32 36 37 40 41
5 5 4 4 5 7 7 5 7 7 9 9 12 6 6 6 7 14 13 16 14 13 12 12 13 16 20 24 26 29 30 30 29 28 27 27 29 29 30 34 36 37 40 41
3 4 4 3 4 8 4 2 6 7 7 10 15 9 10 8 1 6 18 20 17 14 13 15 18 22 24 25 25 26 28 29 28 27 27 28 28 29 33 34 35 37 39 40
3 0 9 5 5 8 6 6 7 6 7 13 16 11 11 6 17 20 13 14 20 17 17 17 21 23 24 26 27 29 30 29 28 28 27 28 28 30 32 33 34 36 38 40
8 8 4 2 2 9 12 6 9 5 14 17 17 13 15 20 20 20 21 17 21 21 23 22 22 24 26 29 30 31 31 28 26 27 27 27 27 29 30 32 33 34 36 39
3 7 6 11 7 1 21 7 22 18 14 16 14 11 18 23 24 22 23 23 26 28 26 25 24 26 28 31 33 33 30 28 27 27 27 27 27 28 28 30 31 33 33 36
4 5 3 4 4 6 12 17 17 19 28 27 23 19 23 26 27 26 27 29 29 28 29 27 27 29 31 32 34 32 29 28 28 28 28 27 27 27 27 28 29 31 32 34
6 10 6 2 4 5 15 19 22 25 29 26 26 28 29 30 30 31 33 33 31 28 28 27 28 29 32 33 32 30 29 28 28 28 27 27 28 27 28 28 27 28 29 30
10 7 4 5 13 12 15 24 24 23 27 29 30 31 30 30 32 30 33 33 28 26 26 27 27 29 33 33 30 28 28 29 29 27 26 26 27 26 27 29 29 22 25 26

GFSCGP_850_spd_030.txt.gz
Wind_Speed
4 4 8 13 10 3 4 4 6 3 3 2 6 7 12 4 11 12 11 11 11 13 16 17 19 21 21 22 22 21 17 14 9 7 8 8 7 8 6 4 4 5 7 10
4 7 10 4 5 5 3 4 6 5 4 5 6 9 2 3 2 10 14 13 14 16 17 20 22 23 24 27 28 28 28 26 24 21 19 16 13 12 9 5 3 5 7 8
8 5 7 6 4 6 5 7 4 7 1 2 1 7 4 3 8 12 12 14 15 16 17 18 20 23 24 26 27 27 27 27 27 26 23 21 18 15 12 11 8 8 10 10
6 4 6 4 6 7 5 8 7 4 3 4 2 5 4 3 3 4 12 15 15 16 17 17 19 21 22 23 22 21 21 21 21 19 17 15 16 16 17 14 14 13 12 11
7 7 5 6 6 7 6 5 5 3 3 1 3 0 6 5 5 6 14 16 16 17 17 19 18 17 18 17 17 17 17 18 17 16 16 15 16 15 13 12 11 11 12 12
5 1 6 7 2 6 9 6 6 4 3 1 8 7 4 5 5 5 15 19 19 18 17 17 16 14 13 13 13 13 13 16 14 12 12 11 12 11 8 10 10 12 12 12
1 4 3 4 5 2 4 6 0 3 1 6 1 2 7 5 3 5 18 27 23 19 18 17 14 12 10 9 8 9 9 10 9 8 7 7 7 7 8 10 11 11 12 14
7 4 10 6 7 8 7 6 5 7 4 4 2 6 5 3 6 9 20 28 25 23 19 16 12 9 7 5 4 4 4 5 5 5 6 6 7 8 9 9 11 13 15 16
6 5 1 2 2 4 5 4 2 6 2 2 5 4 2 1 1 7 19 28 28 25 23 19 15 11 6 3 2 1 1 1 3 3 4 5 5 6 7 8 10 12 13 15
7 2 1 2 4 4 4 6 4 2 2 5 4 4 5 5 8 6 11 26 27 24 23 21 18 13 9 6 5 5 4 2 2 1 0 2 4 7 8 9 11 12 13 14
6 4 1 4 5 9 3 3 3 3 4 5 2 5 6 7 9 13 18 29 28 26 25 23 20 18 13 10 9 9 8 7 5 3 2 4 6 9 12 14 16 17 18 18
7 4 4 6 2 1 0 6 7 6 6 2 1 11 2 4 15 25 26 29 26 24 23 22 22 20 18 14 13 12 11 10 7 6 5 6 9 11 13 16 18 20 21 22
9 3 2 5 1 1 4 5 3 4 3 7 6 8 3 4 9 21 22 25 24 22 21 22 23 25 22 19 16 15 14 12 10 8 8 9 11 14 17 19 21 23 24 25
12 5 8 10 6 5 6 7 6 6 5 5 13 14 3 4 8 13 19 20 21 20 19 19 24 26 27 22 19 18 16 15 14 12 12 13 14 17 19 22 23 25 27 27
5 7 5 3 4 5 7 7 10 10 12 13 13 13 7 11 10 20 21 16 18 18 19 22 24 27 27 24 22 20 18 18 17 17 17 17 17 19 22 24 26 28 28 30
3 1 3 2 2 1 5 9 11 17 4 6 4 11 7 11 14 14 19 17 21 23 19 18 20 23 26 25 23 21 20 20 20 21 22 21 20 22 24 26 28 30 30 32
5 6 4 5 4 4 9 10 15 6 5 11 12 14 4 5 10 19 22 20 18 16 15 17 17 18 20 22 20 20 20 22 24 26 26 24 23 25 27 28 31 32 33 35
6 4 2 4 3 7 2 4 1 14 8 9 1 4 8 6 14 14 14 13 14 17 18 15 13 13 14 16 18 20 24 28 30 29 29 28 27 29 30 31 33 32 34 34
2 5 3 5 5 6 4 6 7 8 10 10 11 9 8 8 5 10 11 10 12 14 13 12 12 12 12 13 17 22 27 31 31 31 31 31 30 30 31 32 32 32 35 34
3 2 5 4 4 7 2 1 6 5 6 12 18 11 10 10 2 5 6 9 12 14 14 14 13 11 15 18 22 24 27 27 29 30 30 30 30 31 32 32 32 33 34 35
4 1 9 5 5 7 5 7 12 6 7 7 17 13 17 5 10 11 14 13 14 16 16 17 16 17 21 19 22 25 26 28 29 31 31 30 29 30 31 33 32 33 33 33
7 8 4 2 3 9 13 5 8 5 6 12 14 16 17 12 10 12 16 19 17 18 18 21 19 24 22 22 23 26 28 28 30 31 30 29 28 30 32 33 32 32 31 32
3 6 6 10 6 1 29 5 15 10 8 11 16 19 16 13 13 12 14 21 22 20 20 22 25 26 25 25 25 28 29 31 32 32 31 29 29 31 30 31 31 30 29 30
4 3 3 3 4 6 23 17 9 12 14 15 16 18 16 17 17 20 19 22 23 23 25 26 28 30 30 29 29 31 32 33 33 32 31 30 30 30 29 29 29 28 26 28
5 8 6 1 1 4 12 17 16 16 15 16 16 19 21 22 24 22 23 24 26 25 29 29 30 30 30 29 31 33 34 34 32 31 30 30 31 31 29 28 27 26 24 27
8 7 5 4 13 13 10 14 16 18 17 15 18 22 24 23 24 25 25 24 25 25 27 29 26 25 27 28 30 33 34 32 31 31 31 31 30 28 28 28 26 21 23 24

GFSCGP_850_spd_033.txt.gz
Wind_Speed
3 3 8 12 9 3 5 4 6 2 3 3 6 6 7 4 6 8 8 9 9 11 14 15 16 17 17 17 17 15 14 16 15 13 13 13 13 13 9 6 2 1 3 6
4 7 8 5 5 4 4 4 6 5 3 2 5 9 7 1 4 8 13 13 14 16 17 19 21 23 25 26 26 26 25 22 21 20 20 19 17 15 12 9 7 6 5 4
8 3 10 7 5 6 5 7 5 6 1 2 2 7 4 1 2 7 11 13 15 18 20 21 23 25 26 27 25 25 25 23 22 21 20 19 18 17 14 13 11 11 10 9
6 2 6 4 6 7 6 8 7 5 4 4 1 4 4 3 3 6 14 17 18 19 20 21 22 22 23 24 23 20 19 19 19 17 14 13 13 12 14 13 12 11 11 11
7 7 5 5 7 7 5 6 7 4 4 2 3 0 7 3 6 8 14 17 18 18 18 19 19 18 19 20 19 17 16 15 15 12 10 11 14 17 15 13 11 12 12 12
4 1 6 8 2 5 9 6 6 4 3 2 8 8 4 5 6 4 19 27 25 23 22 21 19 17 16 15 15 13 11 12 11 10 12 12 14 13 10 9 8 9 9 10
1 5 3 5 6 3 1 6 1 2 1 5 3 3 7 3 2 2 19 27 27 26 26 25 22 19 17 12 10 9 8 8 7 5 6 6 6 5 4 4 5 5 7 8
7 5 11 7 7 8 8 6 5 7 4 3 2 6 6 2 2 4 13 30 30 29 26 24 20 17 15 12 10 8 6 4 4 4 5 5 5 4 3 4 5 6 8 10
7 6 0 3 4 7 6 6 4 6 2 3 4 4 3 1 1 3 17 29 34 32 30 27 22 18 15 12 10 7 5 5 6 6 5 4 4 3 3 4 5 7 8 10
7 3 2 3 4 2 5 7 3 2 2 4 3 4 5 6 8 6 12 27 34 33 31 28 25 20 16 14 12 9 9 8 8 7 6 3 1 1 2 4 6 8 10 10
6 4 1 4 7 10 4 3 2 4 4 5 2 5 6 9 9 14 20 33 38 37 34 31 27 23 19 17 15 13 12 12 11 10 8 5 3 1 3 6 9 11 14 15
9 5 5 8 1 1 2 7 7 4 5 2 1 6 1 4 10 21 25 32 35 34 33 30 28 26 25 22 20 16 15 16 15 13 11 7 4 3 6 9 12 14 16 18
10 4 2 4 2 2 6 5 4 5 3 8 4 5 0 4 6 17 23 31 35 33 31 30 28 28 28 27 24 19 19 18 18 16 13 10 8 7 8 11 14 16 19 21
22 6 9 16 6 6 7 7 7 8 4 6 13 9 6 6 8 13 22 27 30 30 30 29 29 29 28 28 27 23 21 21 21 19 16 14 12 11 12 13 15 18 20 22
7 8 5 4 5 6 6 9 13 15 16 10 12 13 8 13 12 23 28 23 26 29 29 28 26 25 26 28 28 26 24 24 23 22 20 18 17 16 16 15 16 18 21 24
2 3 6 5 1 1 4 10 12 14 10 11 5 10 6 16 11 12 17 22 23 29 26 23 22 22 23 25 28 28 27 25 26 24 22 23 23 21 19 19 19 21 24 27
7 6 5 10 3 4 7 12 14 6 5 11 11 17 6 5 9 16 18 22 26 22 20 20 18 18 20 22 24 26 24 24 26 26 27 28 27 25 23 22 21 23 27 30
7 6 2 3 2 8 2 4 1 11 6 4 2 4 10 10 19 15 16 18 19 16 16 16 17 20 20 18 18 19 22 25 26 28 31 31 29 28 26 24 24 26 30 31
1 6 4 5 4 6 3 5 8 9 9 10 12 6 9 9 7 7 12 11 11 12 12 15 18 17 15 15 15 18 20 23 27 29 31 30 30 29 27 26 25 28 30 30
1 2 5 3 5 9 3 2 6 5 5 8 16 7 11 14 2 4 12 13 10 12 14 17 18 17 17 15 13 15 20 22 24 25 24 26 29 29 28 26 26 28 30 32
4 1 9 5 4 5 5 5 12 5 5 9 17 11 22 5 8 9 9 8 7 9 12 16 18 18 18 15 14 17 19 21 21 23 25 27 29 29 28 27 26 29 31 32
7 8 4 3 3 7 12 6 9 5 7 14 13 14 17 14 11 9 6 8 11 14 16 18 20 22 21 16 19 20 22 20 21 24 27 29 30 29 29 28 28 30 32 33
2 4 5 8 5 1 27 3 11 15 19 13 13 15 16 18 18 12 8 9 11 16 19 21 25 21 22 22 22 23 25 25 24 25 29 30 29 29 29 29 29 30 32 32
4 3 2 3 3 3 23 6 16 14 15 11 10 12 18 20 17 15 11 11 13 15 19 21 26 27 26 27 27 28 27 28 27 27 29 30 29 28 29 29 29 31 30 29
3 8 6 1 1 2 11 25 17 18 13 13 13 12 15 17 18 19 19 16 15 16 18 21 22 26 30 29 29 27 28 28 28 29 29 29 28 27 27 28 29 29 28 29
8 6 4 4 15 11 11 26 24 22 22 17 13 13 14 15 18 16 20 20 18 17 17 19 22 25 28 26 25 25 26 26 28 29 28 27 27 28 28 29 28 27 28 27